Location: B�rgermoos
(47.6500°N, 9.0667°E)
Time: 05:20:57
(UTC+00:00)

Vanguard 1 Rocket - All Passes

Search period start: 26 July 2021 00:00
Search period end: 05 August 2021 00:00
Orbit: 650 x 4226 km, 34.3° (Epoch: 25 July)

Date Brightness Start Highest point End Pass type
(mag) Time Alt. Az. Time Alt. Az. Time Alt. Az.
26 Jul - 09:17:30 10° SSW 09:28:08 20° SSE 09:35:26 10° ESE daylight
26 Jul - 11:43:42 10° SW 11:54:20 31° S 12:00:39 10° ESE daylight
26 Jul - 14:12:23 10° WSW 14:19:02 25° SSW 14:23:30 10° SE daylight
27 Jul - 08:06:55 10° S 08:15:53 15° SSE 08:22:46 10° ESE daylight
27 Jul - 10:30:22 10° SW 10:42:45 29° SSE 10:50:11 10° ESE daylight
27 Jul - 12:59:02 10° WSW 13:08:13 31° S 13:13:46 10° SE daylight
27 Jul - 15:28:27 10° WSW 15:32:04 15° SSW 15:35:00 10° S daylight
28 Jul - 09:17:26 10° SSW 09:30:45 26° SSE 09:39:13 10° ESE daylight
28 Jul - 11:45:21 10° WSW 11:57:02 35° S 12:03:44 10° ESE daylight
28 Jul - 14:14:52 10° WSW 14:21:38 24° SSW 14:26:11 10° SSE daylight
29 Jul - 08:05:29 10° SSW 08:18:24 21° SSE 08:27:24 10° ESE daylight
29 Jul - 10:31:30 10° SW 10:45:25 34° S 10:53:23 10° ESE daylight
29 Jul - 13:01:11 10° WSW 13:10:53 32° SSW 13:16:38 10° SE daylight
29 Jul - 15:31:45 10° WSW 15:34:30 13° SW 15:36:51 10° S daylight
30 Jul - 06:55:36 10° S 07:05:48 15° SE 07:13:52 10° ESE daylight
30 Jul - 09:17:54 10° SW 09:33:20 31° SSE 09:42:38 10° ESE daylight
30 Jul - 11:47:09 10° WSW 11:59:41 38° S 12:06:43 10° ESE daylight
30 Jul - 14:17:24 10° WSW 14:24:10 23° SSW 14:28:44 10° SSE daylight
31 Jul - 08:05:03 10° SSW 08:20:51 27° SSE 08:31:13 10° ESE daylight
31 Jul - 10:32:52 10° SW 10:48:02 39° S 10:56:28 10° ESE daylight
31 Jul - 13:03:23 10° WSW 13:13:28 32° SSW 13:19:25 10° SE daylight
01 Aug - 06:53:39 10° S 07:08:07 21° SSE 07:18:43 10° ESE daylight
01 Aug - 09:18:44 10° SW 09:35:52 37° SSE 09:45:49 10° ESE daylight
01 Aug - 11:49:02 10° WSW 12:02:18 39° S 12:09:36 10° ESE daylight
01 Aug - 14:20:04 10° WSW 14:26:34 20° SSW 14:31:06 10° SSE daylight
02 Aug - 05:45:06 10° SSE 05:55:16 14° SE 06:03:49 10° ESE daylight
02 Aug - 08:05:14 10° SSW 08:23:16 33° SSE 08:34:38 10° ESE daylight
02 Aug - 10:34:25 10° WSW 10:50:35 42° S 10:59:26 10° ESE daylight
02 Aug - 13:05:40 10° WSW 13:15:58 31° SSW 13:22:05 10° SE daylight
03 Aug - 06:52:53 10° SSW 07:10:21 27° SSE 07:22:37 10° E daylight
03 Aug - 09:19:51 10° SW 09:38:21 42° S 09:48:52 10° ESE daylight
03 Aug - 11:51:01 10° WSW 12:04:50 40° SSW 12:12:25 10° SE daylight
03 Aug - 14:22:55 10° WSW 14:28:52 18° SW 14:33:11 10° S daylight
04 Aug - 05:42:27 10° S 05:57:21 20° SE 06:09:09 10° ESE daylight
04 Aug - 08:05:49 10° SW 08:25:37 38° SSE 08:37:48 10° E daylight
04 Aug - 10:36:05 10° WSW 10:53:06 45° S 11:02:18 10° ESE daylight
04 Aug - 13:07:59 10° W 13:18:21 29° SSW 13:24:38 10° SSE daylight
